Torna al catalogo

SL-12 DEB

LostHEO
NORAD 39798·DEBRIS·🇷🇺 Russia

Lanciato Sep 25, 2008 da Baikonur Cosmodrome

Loading…

Prossimi Passaggi (prossime 24 ore)

TLE

ObsoletoSource: Space-Track

Epoca: Aug 31, 2022, 16:35 UTC

1 39798U 08046K   22243.69099779  .00010555  00000-0  54857-2 0  9990
2 39798  64.2514 140.9486 5741875 354.0701   1.3803  4.36475544127837

Traccia SL-12 DEB in tempo reale con AllMySat

Download on the App Store